Location: Aldenham
(51.6667°N, 0.3500°W)
Time: 16:46:36
(UTC+00:00)

SL-16 R/B - Pass Details

Date: 18 November 2025
Orbit: 985 x 1006 km, 99.8° (Epoch: 09 December)

Event Time Altitude Azimuth Distance (km) Brightness Sun altitude
Rises 18:27:34 0° 12° (NNE) 3,749 5.4 -21.4°
Reaches altitude 10° 18:30:23 10° 1° (N) 2,795 4.8 -21.8°
Maximum altitude 18:35:32 28° 306° (NW) 1,804 4.4 -22.6°
Drops below altitude 10° 18:40:39 10° 251° (WSW) 2,776 5.9 -23.4°
Sets 18:43:28 0° 240° (WSW) 3,719 6.5 -23.8°
